Location: ?????????
(44.2517°N, 135.2292°E)
Time: 02:37:00
(UTC+00:00)

Aureole 3 - Pass Details

Date: 19 May 2025
Orbit: 375 x 1064 km, 82.5° (Epoch: 14 June)

Event Time Altitude Azimuth Distance (km) Brightness Sun altitude
Exits shadow 18:09:14 - 168° (SSE) 1,797 5.6 -12.1°
Reaches altitude 10° 18:09:58 10° 165° (SSE) 1,495 5.3 -12.0°
Maximum altitude 18:13:01 43° 92° (E) 656 4.1 -11.6°
Drops below altitude 10° 18:16:36 10° 20° (NNE) 1,756 7.0 -11.1°
Sets 18:19:02 0° 14° (NNE) 2,768 7.9 -10.8°
